Weather History for Marion, OH

Change the Weather History Date:

Tuesday, December 24, 2013

  Actual Average (KDLZ) Record (KDLZ)
Temperature  
Mean Temperature 16 °F -  
Max Temperature 23 °F 36 °F 60 °F (1964)
Min Temperature 10 °F 20 °F -25 °F (1989)
Degree Days  
Heating Degree Days 48    
Moisture  
Dew Point 9 °F    
Average Humidity 76    
Maximum Humidity 88    
Minimum Humidity 62    
Precipitation  
Precipitation 0.00 in - - ()
Sea Level Pressure  
Sea Level Pressure 30.45 in    
Wind  
Wind Speed 11 mph (WNW)    
Max Wind Speed 16 mph    
Max Gust Speed 26 mph    
Visibility 7 miles    
Events Snow    
Averages and records for this station are not official NWS values.
T = Trace of Precipitation, MM = Missing Value Source: NWS Daily Summary

Daily Weather History Graph

Daily Weather History Graph

Search for Another Location

Airport:

Trip Planner

Search our weather history database for the weather conditions in past years. The results will help you decide how hot, cold, wet, or windy it might be!

Date:

Astronomy

Dec. 24, 2013 Rise Set
Actual Time 7:53 AM EST 5:10 PM EST
Civil Twilight 7:23 AM EST 5:41 PM EST
Nautical Twilight 6:48 AM EST 6:15 PM EST
Astronomical Twilight 6:15 AM EST 6:48 PM EST
Moon No Moon Rise 11:45 AM EST (12/24)
Length of Visible Light 10h 18m
Length of Day
9h 16m
Waning Gibbous, 59% of the Moon is Illuminated
Dec 24
Waning Gibbous
Dec 25
Last Quarter
Jan 1
New
Jan 7
First Quarter
Jan 15
Full

Hourly Weather History & Observations

Time (EST) Temp. Windchill Dew Point Humidity Pressure Visibility Wind Dir Wind Speed Gust Speed Precip Events Conditions
12:48 AM 23.0 °F 11.1 °F 17.6 °F 80% 30.31 in 2.5 mi WNW 12.7 mph 17.3 mph 0.00 in Snow Light Snow
12:53 AM 23.0 °F 11.7 °F 17.1 °F 78% 30.35 in 4.0 mi WNW 11.5 mph - 0.00 in Snow Light Snow
1:06 AM 23.0 °F 12.4 °F 15.8 °F 74% 30.30 in 3.0 mi WNW 10.4 mph - 0.00 in Snow Light Snow
1:31 AM 21.2 °F 10.1 °F 15.8 °F 80% 30.30 in 2.5 mi WNW 10.4 mph - 0.00 in Snow Light Snow
1:42 AM 21.2 °F 10.1 °F 17.6 °F 86% 30.30 in 1.8 mi WNW 10.4 mph - 0.00 in Snow Light Snow
1:53 AM 21.9 °F 12.5 °F 18.0 °F 85% 30.35 in 1.2 mi WNW 8.1 mph - 0.00 in Snow Light Snow
2:45 AM 19.4 °F 6.0 °F 14.0 °F 80% 30.31 in 2.5 mi WNW 13.8 mph 20.7 mph 0.00 in Snow Light Snow
2:53 AM 19.0 °F 5.6 °F 12.9 °F 77% 30.37 in 4.0 mi WNW 13.8 mph 20.7 mph 0.00 in Snow Light Snow
3:53 AM 18.0 °F 3.1 °F 9.0 °F 68% 30.38 in 8.0 mi WNW 16.1 mph 26.5 mph 0.00 in Snow Light Snow
4:08 AM 17.6 °F 3.2 °F 8.6 °F 68% 30.33 in 10.0 mi WNW 15.0 mph 24.2 mph 0.00 in   Overcast
4:25 AM 15.8 °F 0.3 °F 5.0 °F 62% 30.33 in 10.0 mi WNW 16.1 mph 23.0 mph 0.00 in   Mostly Cloudy
4:53 AM 15.1 °F 0.5 °F 8.1 °F 74% 30.38 in 10.0 mi West 13.8 mph - 0.00 in   Scattered Clouds
5:49 AM 14.0 °F 2.0 °F 6.8 °F 73% 30.34 in 10.0 mi WNW 9.2 mph - N/A   Mostly Cloudy
5:53 AM 12.9 °F -2.8 °F 6.1 °F 74% 30.40 in 10.0 mi NW 15.0 mph - N/A   Mostly Cloudy
6:53 AM 12.0 °F -4.0 °F 7.0 °F 80% 30.42 in 8.0 mi WNW 15.0 mph - 0.00 in Snow Light Snow
7:53 AM 10.9 °F -5.9 °F 5.0 °F 77% 30.44 in 9.0 mi NW 16.1 mph 23.0 mph 0.00 in   Overcast
8:53 AM 10.9 °F -4.7 °F 5.0 °F 77% 30.47 in 2.5 mi WNW 13.8 mph - 0.00 in Snow Light Snow
9:23 AM 10.4 °F -4.8 °F 6.8 °F 85% 30.42 in 3.0 mi WNW 12.7 mph - 0.00 in Snow Light Snow
9:53 AM 12.0 °F -2.7 °F 6.1 °F 77% 30.50 in 6.0 mi NW 12.7 mph - 0.00 in   Haze
10:53 AM 12.9 °F -0.9 °F 7.0 °F 77% 30.51 in 3.0 mi NW 11.5 mph - 0.00 in Snow Light Snow
10:57 AM 12.2 °F -2.5 °F 6.8 °F 79% 30.46 in 2.5 mi NW 12.7 mph - 0.00 in Snow Light Snow
11:32 AM 12.2 °F -1.0 °F 6.8 °F 79% 30.46 in 3.0 mi WNW 10.4 mph - 0.00 in Snow Light Snow
11:53 AM 14.0 °F 1.2 °F 7.0 °F 74% 30.51 in 5.0 mi WNW 10.4 mph - 0.00 in   Haze
12:53 PM 14.0 °F 1.2 °F 8.1 °F 77% 30.52 in 7.0 mi WNW 10.4 mph - N/A   Overcast
1:53 PM 15.1 °F 4.2 °F 8.1 °F 74% 30.51 in 6.0 mi West 8.1 mph - N/A   Haze
2:53 PM 16.0 °F 3.6 °F 8.1 °F 71% 30.53 in 9.0 mi West 10.4 mph - N/A   Overcast
3:53 PM 17.1 °F 7.6 °F 9.0 °F 71% 30.55 in 10.0 mi WNW 6.9 mph - N/A   Overcast
4:53 PM 17.1 °F 8.7 °F 8.1 °F 68% 30.56 in 10.0 mi WNW 5.8 mph - N/A   Overcast
5:53 PM 17.1 °F 7.6 °F 8.1 °F 68% 30.58 in 10.0 mi WNW 6.9 mph - N/A   Overcast
6:53 PM 16.0 °F 8.8 °F 7.0 °F 68% 30.58 in 10.0 mi NNW 4.6 mph - N/A   Mostly Cloudy
7:04 PM 15.8 °F 10.2 °F 6.8 °F 68% 30.52 in 10.0 mi NNW 3.5 mph - N/A   Scattered Clouds
7:53 PM 14.0 °F - 8.1 °F 77% 30.59 in 10.0 mi Calm Calm - N/A   Clear
8:53 PM 12.9 °F - 8.1 °F 81% 30.58 in 10.0 mi Calm Calm - N/A   Clear
9:53 PM 12.0 °F 4.1 °F 8.1 °F 84% 30.57 in 10.0 mi South 4.6 mph - N/A   Clear
10:53 PM 10.9 °F 2.9 °F 8.1 °F 88% 30.57 in 9.0 mi South 4.6 mph - N/A   Clear
11:53 PM 12.0 °F 5.9 °F 8.1 °F 84% 30.55 in 8.0 mi SSE 3.5 mph - N/A   Clear